Regional Weather Roundup
Issued by NWS

Home | Current Version | Previous Version | Text Only | Print | Product List | Glossary Off
Versions: 1 2 3 4 5 6 7 8 9 10 11 12 13 14 15 16 17 18 19 20 21 22 23 24 25 26 27

000
ASUS43 KDMX 260307
RWRIA

WEATHER ROUNDUP FOR IOWA
NATIONAL WEATHER SERVICE DES MOINES IA
1000 PM CDT SAT OCT 25 2014

NOTE: "FAIR" INDICATES FEW OR NO CLOUDS BELOW 12,000 FEET WITH NO
SIGNIFICANT WEATHER AND/OR OBSTRUCTIONS TO VISIBILITY.

* - THESE STATIONS ARE NOT NWS STATIONS...THUS NOT UNDER NWS
QUALITY CONTROL.  THEY ALSO DO NOT REPORT WEATHER SUCH
AS PRECIPITATION OR FOG.

IAZ001>003-012>014-020>022-031>034-043>046-260400-
   NORTHWEST IOWA

CITY           SKY/WX    TMP DP  RH WIND       PRES   REMARKS
CARROLL *      CLEAR     43  39  87 NW3       30.08R
CHEROKEE *     CLEAR     45  41  87 CALM      30.08S
DENISON *      CLEAR     46  39  76 CALM      30.06S
LE MARS *      CLEAR     45  39  81 CALM      30.07S
ORANGE CITY *  CLEAR     54  34  47 E5        30.08R
SHELDON *      CLEAR     43  36  75 E3        30.07R
SIOUX CITY     CLEAR     54  37  52 E8        30.05F
SPENCER        CLEAR     42  33  70 CALM      30.08S
STORM LAKE *   CLEAR     52  34  50 NE6       30.09S
$$

IAZ055>058-069>071-079>083-090>094-260400-
   SOUTHWEST IOWA

CITY           SKY/WX    TMP DP  RH WIND       PRES   REMARKS
AUDUBON *      CLEAR     45  37  76 CALM      30.08S
CLARINDA *     CLEAR     55  45  67 N6        30.06R
COUNCIL BLFS * CLEAR     59  41  51 E8        30.04R
CRESTON *      CLEAR     55  41  58 E8        30.07R
HARLAN  *      CLEAR     52  39  62 CALM      30.10R
LAMONI         CLEAR     59  42  53 NE5       30.06R
RED OAK *      CLEAR     54  45  71 NE6       30.05S
SHENANDOAH *   CLEAR     54  46  76 NE8       30.04S
$$

IAZ047>049-059>061-072>074-084-260400-
   CENTRAL IOWA

CITY           SKY/WX    TMP DP  RH WIND       PRES   REMARKS
AMES           CLEAR     44  40  85 CALM      30.07R
ANKENY *       CLEAR     46  43  87 N5        30.07R
CHARITON *     CLEAR     57  39  51 NE6       30.07R
DES MOINES     CLEAR     58  38  47 NE3       30.07R
GRINNELL*      CLEAR     52  36  54 NW3       30.08R
KNOXVILLE *    CLEAR     57  36  44 N3        30.06R
MARSHALLTOWN   CLEAR     49  36  61 N3        30.06S
PELLA *        CLEAR     54  37  54 N3        30.07S
PERRY *          N/A     48  39  71 CALM      30.07S
$$

IAZ004>006-015-016-023>025-035-036-260400-
   NORTH CENTRAL IOWA

CITY           SKY/WX    TMP DP  RH WIND       PRES   REMARKS
ALGONA *       CLEAR     48  34  57 CALM      30.08R
CLARION *      CLEAR     41  36  81 CALM      30.08R
ESTHERVILLE    CLEAR     39  30  70 CALM      30.07S
FORT DODGE *   CLEAR     45  36  70 CALM      30.09R
MASON CITY     CLEAR     41  33  73 NW8       30.08S
FOREST CITY *  CLEAR     41  37  87 CALM      30.07S
IOWA FALLS *     N/A     45  36  70 CALM      30.08S
$$

IAZ007>011-017>019-026>030-037>042-050>054-066-260400-
   NORTHEAST IOWA

CITY           SKY/WX    TMP DP  RH WIND       PRES   REMARKS
CEDAR RAPIDS   CLEAR     49  37  63 NW6       30.04S
CHARLES CITY * CLEAR     45  34  65 NW6       30.06F
CLINTON *      CLEAR     52  34  50 NW8       30.06R
DECORAH *      CLEAR     50  32  50 NW5       30.04R
DUBUQUE        CLEAR     49  32  52 NW8       30.04R
MONTICELLO *   CLEAR     45  37  76 CALM      30.05R
OELWEIN *      CLEAR     46  34  61 NW3       30.06S
WATERLOO       CLEAR     44  36  73 W3        30.06R
$$

IAZ064-065-067-068-078-260400-
   EAST CENTRAL IOWA

CITY           SKY/WX    TMP DP  RH WIND       PRES   REMARKS
DAVENPORT      CLEAR     49  35  58 NW7       30.04S
IOWA CITY      CLEAR     48  39  71 CALM      30.06S
MT. PLEASANT * CLEAR     55  37  50 NW5       30.06R
MUSCATINE *    CLEAR     55  36  47 CALM      30.05S
QUAD CITIES    CLEAR     49  37  63 SW5       30.04R
$$

IAZ062-063-075>077-085>089-095>099-260400-
   SOUTHEAST IOWA

CITY           SKY/WX    TMP DP  RH WIND       PRES   REMARKS
BURLINGTON     CLEAR     51  40  65 N6        30.04S
FAIRFIELD *    CLEAR     55  37  50 N7        30.06R
FORT MADISON * CLEAR     57  39  51 CALM      30.06R
KEOKUK *       CLEAR     59  39  47 N6        30.04S
OSKALOOSA *      N/A     52  37  58 N5        30.06S
CENTERVILLE *  CLEAR     48  43  81 N5        30.07S
OTTUMWA        CLEAR     55  37  50 N5        30.06R
WASHINGTON *   CLEAR     52  41  66 NW6       30.06R
$$

ABBREVIATIONS USED IN REMARKS
   TC - TEMPERATURES IN CELSIUS
  WCI - WIND CHILL INDEX
   HX - HEAT INDEX
  VSB - VISIBILITY
$$




USA.gov is the U.S. government's official web portal to all federal, state and local government web resources and services.